| time (UTC) | temp C | wind direction | speed KPH | gust KPH | rain 1hr cm | rain 24hr cm | rain mn cm | humidity % | barometer mb |
| 20260507060155 | 19 | 337 | 9.7 | 35.4 | 0.00 | 0.00 | 0.00 | 78 | 1013.3 |
| 20260507054654 | 20 | 358 | 12.9 | 35.4 | 0.00 | 0.00 | 0.00 | 78 | 1013.3 |
| 20260507053733 | 20 | 0 | 9.7 | 20.9 | 0.00 | 0.00 | 0.00 | 77 | 1013.4 |
| 20260507053305 | 20 | 10 | 9.7 | 20.9 | 0.00 | 0.00 | 0.00 | 77 | 1013.4 |
| 20260507050902 | 20 | 0 | 9.7 | 22.5 | 0.00 | 0.00 | 0.00 | 77 | 1013.5 |
| 20260507044652 | 20 | 13 | 6.4 | 22.5 | 0.00 | 0.00 | 0.00 | 76 | 1013.4 |
| 20260507043153 | 20 | 23 | 11.3 | 22.5 | 0.00 | 0.00 | 0.00 | 76 | 1013.3 |
| 20260507041651 | 20 | 10 | 3.2 | 22.5 | 0.00 | 0.00 | 0.00 | 76 | 1013.2 |
| 20260507040850 | 21 | 45 | 6.4 | 22.5 | 0.00 | 0.00 | 0.00 | 76 | 1013.2 |
| 20260507035351 | 21 | 354 | 4.8 | 25.7 | 0.00 | 0.00 | 0.00 | 76 | 1013.1 |
| 20260507033849 | 21 | 8 | 11.3 | 29.0 | 0.00 | 0.00 | 0.00 | 76 | 1012.9 |
| 20260507032349 | 21 | 321 | 9.7 | 29.0 | 0.00 | 0.00 | 0.00 | 76 | 1012.6 |
| 20260507030149 | 21 | 309 | 8.0 | 20.9 | 0.00 | 0.00 | 0.00 | 76 | 1012.2 |
| 20260507024650 | 21 | 0 | 6.4 | 29.0 | 0.00 | 0.00 | 0.00 | 75 | 1011.9 |
| 20260507023151 | 22 | 13 | 4.8 | 25.7 | 0.00 | 0.00 | 0.00 | 76 | 1011.6 |
| 20260507022344 | 22 | 0 | 6.4 | 22.5 | 0.00 | 0.00 | 0.00 | 76 | 1011.3 |
| 20260507020857 | 23 | 0 | 14.5 | 25.7 | 0.00 | 0.00 | 0.00 | 77 | 1011.0 |
| 20260507014648 | 23 | 354 | 6.4 | 20.9 | 0.00 | 0.00 | 0.00 | 78 | 1010.7 |
| 20260507013150 | 23 | 345 | 8.0 | 29.0 | 0.00 | 0.00 | 0.00 | 77 | 1010.5 |
| 20260507011648 | 23 | 336 | 9.7 | 25.7 | 0.00 | 0.00 | 0.00 | 78 | 1010.2 |
| 20260507010149 | 23 | 345 | 4.8 | 22.5 | 0.00 | 0.00 | 0.00 | 78 | 1010.0 |
| 20260507004647 | 24 | 0 | 9.7 | 25.7 | 0.00 | 0.00 | 0.00 | 78 | 1009.8 |
| 20260507003150 | 24 | 265 | 4.8 | 25.7 | 0.00 | 0.00 | 0.00 | 78 | 1009.4 |
| 20260507002347 | 25 | 200 | 8.0 | 29.0 | 0.00 | 0.00 | 0.00 | 77 | 1009.4 |
| 20260507000149 | 26 | 351 | 11.3 | 25.7 | 0.00 | 0.00 | 0.00 | 79 | 1008.9 |
| 20260506235351 | 27 | 75 | 0.0 | 4.8 | 0.00 | 0.00 | 0.00 | 82 | 1008.8 |
| 20260506233147 | 27 | 75 | 1.6 | 4.8 | 0.00 | 0.00 | 0.00 | 82 | 1008.6 |
| 20260506231645 | 27 | 76 | 1.6 | 4.8 | 0.00 | 0.00 | 0.00 | 81 | 1008.5 |
| 20260506230146 | 27 | 75 | 1.6 | 4.8 | 0.00 | 0.00 | 0.00 | 81 | 1008.5 |
| 20260506224645 | 28 | 75 | 1.6 | 4.8 | 0.00 | 0.00 | 0.00 | 80 | 1008.5 |
| 20260506223145 | 28 | 16 | 1.6 | 8.0 | 0.00 | 0.00 | 0.00 | 78 | 1008.3 |
| 20260506221645 | 28 | 17 | 1.6 | 8.0 | 0.00 | 0.00 | 0.00 | 79 | 1008.2 |
| 20260506220145 | 28 | 168 | 4.8 | 8.0 | 0.00 | 0.00 | 0.00 | 78 | 1008.2 |
| 20260506214643 | 28 | 169 | 3.2 | 8.0 | 0.00 | 0.00 | 0.00 | 78 | 1008.3 |
| 20260506213145 | 28 | 90 | 1.6 | 8.0 | 0.00 | 0.00 | 0.00 | 76 | 1008.2 |
| 20260506211643 | 28 | 10 | 3.2 | 4.8 | 0.00 | 0.00 | 0.00 | 76 | 1008.2 |
| 20260506210844 | 28 | 72 | 0.0 | 4.8 | 0.00 | 0.00 | 0.00 | 76 | 1008.5 |
| 20260506204642 | 28 | 141 | 0.0 | 4.8 | 0.00 | 0.00 | 0.00 | 76 | 1008.6 |
| 20260506203143 | 28 | 141 | 1.6 | 8.0 | 0.00 | 0.00 | 0.00 | 75 | 1008.7 |
| 20260506201641 | 28 | 135 | 0.0 | 8.0 | 0.00 | 0.00 | 0.00 | 77 | 1008.8 |
| 20260506200142 | 28 | 180 | 0.0 | 4.8 | 0.00 | 0.00 | 0.00 | 76 | 1009.1 |
| 20260506194640 | 28 | 180 | 3.2 | 11.3 | 0.00 | 0.00 | 0.00 | 78 | 1009.0 |
| 20260506193142 | 28 | 162 | 4.8 | 11.3 | 0.00 | 0.00 | 0.00 | 77 | 1009.2 |
| 20260506191640 | 28 | 168 | 4.8 | 11.3 | 0.00 | 0.00 | 0.00 | 73 | 1009.3 |
| 20260506190141 | 29 | 130 | 3.2 | 11.3 | 0.00 | 0.00 | 0.00 | 73 | 1009.4 |
| 20260506184639 | 28 | 118 | 4.8 | 8.0 | 0.00 | 0.00 | 0.00 | 76 | 1009.6 |
| 20260506183834 | 28 | 157 | 4.8 | 8.0 | 0.00 | 0.00 | 0.00 | 77 | 1009.8 |
| 20260506181639 | 27 | 138 | 3.2 | 8.0 | 0.00 | 0.00 | 0.00 | 78 | 1010.2 |
| 20260506180139 | 27 | 144 | 3.2 | 4.8 | 0.00 | 0.00 | 0.00 | 77 | 1010.5 |
| 20260506174638 | 27 | 144 | 4.8 | 8.0 | 0.00 | 0.00 | 0.00 | 77 | 1010.7 |
| 20260506173140 | 27 | 145 | 3.2 | 4.8 | 0.00 | 0.00 | 0.00 | 79 | 1010.9 |
| 20260506171638 | 27 | 125 | 0.0 | 4.8 | 0.00 | 0.00 | 0.00 | 80 | 1011.0 |
| 20260506170139 | 27 | 125 | 3.2 | 8.0 | 0.00 | 0.00 | 0.00 | 78 | 1011.1 |
| 20260506164637 | 27 | 63 | 0.0 | 11.3 | 0.00 | 0.00 | 0.00 | 79 | 1011.0 |
| 20260506163138 | 27 | 120 | 1.6 | 8.0 | 0.00 | 0.00 | 0.00 | 81 | 1010.9 |
| 20260506162336 | 26 | 137 | 1.6 | 4.8 | 0.00 | 0.00 | 0.00 | 81 | 1010.7 |
| 20260506160137 | 26 | 137 | 1.6 | 8.0 | 0.00 | 0.00 | 0.00 | 81 | 1010.6 |
| 20260506154635 | 26 | 137 | 0.0 | 8.0 | 0.00 | 0.00 | 0.00 | 82 | 1010.5 |
| 20260506153136 | 26 | 137 | 1.6 | 4.8 | 0.00 | 0.00 | 0.00 | 83 | 1010.5 |
| 20260506152340 | 26 | 137 | 1.6 | 8.0 | 0.00 | 0.00 | 0.00 | 83 | 1010.5 |
| 20260506150136 | 26 | 138 | 3.2 | 8.0 | 0.00 | 0.00 | 0.00 | 84 | 1010.2 |
| 20260506144634 | 25 | 138 | 1.6 | 8.0 | 0.00 | 0.00 | 0.00 | 85 | 1010.3 |
| 20260506143135 | 25 | 138 | 3.2 | 11.3 | 0.00 | 0.00 | 0.00 | 85 | 1009.9 |
| 20260506141634 | 25 | 161 | 0.0 | 4.8 | 0.00 | 0.00 | 0.00 | 86 | 1009.9 |
| 20260506140836 | 25 | 161 | 1.6 | 4.8 | 0.00 | 0.00 | 0.00 | 86 | 1010.0 |
| 20260506134633 | 25 | 161 | 1.6 | 4.8 | 0.00 | 0.00 | 0.00 | 86 | 1010.1 |
| 20260506133134 | 25 | 161 | 0.0 | 3.2 | 0.00 | 0.00 | 0.00 | 86 | 1010.2 |
| 20260506132323 | 24 | 161 | 0.0 | 3.2 | 0.00 | 0.00 | 0.00 | 87 | 1010.3 |
| 20260506130134 | 24 | 161 | 0.0 | 3.2 | 0.00 | 0.00 | 0.00 | 87 | 1010.1 |
| 20260506124632 | 24 | 161 | 1.6 | 4.8 | 0.00 | 0.00 | 0.00 | 87 | 1010.0 |
| 20260506123133 | 24 | 161 | 0.0 | 3.2 | 0.00 | 0.00 | 0.00 | 87 | 1009.8 |
| 20260506121631 | 24 | 161 | 1.6 | 3.2 | 0.00 | 0.00 | 0.00 | 87 | 1009.7 |
| 20260506120132 | 24 | 161 | 0.0 | 4.8 | 0.00 | 0.00 | 0.00 | 87 | 1009.7 |
| 20260506115328 | 24 | 161 | 0.0 | 3.2 | 0.00 | 0.00 | 0.00 | 87 | 1009.5 |
| 20260506113132 | 24 | 161 | 0.0 | 3.2 | 0.00 | 0.00 | 0.00 | 86 | 1009.4 |
| 20260506111630 | 24 | 161 | 0.0 | 4.8 | 0.00 | 0.00 | 0.00 | 86 | 1009.3 |
| 20260506110132 | 24 | 164 | 0.0 | 8.0 | 0.00 | 0.00 | 0.00 | 86 | 1008.8 |
| 20260506104629 | 24 | 162 | 3.2 | 4.8 | 0.00 | 0.00 | 0.00 | 86 | 1008.7 |
| 20260506103130 | 24 | 164 | 3.2 | 8.0 | 0.00 | 0.00 | 0.00 | 85 | 1008.8 |
| 20260506101628 | 24 | 176 | 4.8 | 11.3 | 0.00 | 0.00 | 0.00 | 84 | 1008.6 |
| 20260506100129 | 24 | 190 | 4.8 | 11.3 | 0.00 | 0.00 | 0.00 | 84 | 1008.5 |
| 20260506095325 | 25 | 210 | 6.4 | 14.5 | 0.00 | 0.00 | 0.00 | 84 | 1008.4 |
| 20260506093130 | 25 | 175 | 6.4 | 14.5 | 0.00 | 0.00 | 0.00 | 84 | 1008.2 |
| 20260506091627 | 25 | 200 | 4.8 | 11.3 | 0.00 | 0.00 | 0.00 | 84 | 1008.3 |
| 20260506090129 | 25 | 206 | 3.2 | 8.0 | 0.00 | 0.00 | 0.00 | 84 | 1008.3 |
| 20260506084627 | 25 | 172 | 4.8 | 14.5 | 0.00 | 0.00 | 0.00 | 83 | 1008.2 |
| 20260506083128 | 25 | 176 | 8.0 | 14.5 | 0.00 | 0.00 | 0.00 | 83 | 1008.2 |
| 20260506081626 | 25 | 169 | 6.4 | 14.5 | 0.00 | 0.00 | 0.00 | 83 | 1008.5 |
| 20260506080127 | 25 | 192 | 4.8 | 17.7 | 0.00 | 0.00 | 0.00 | 83 | 1008.6 |
| 20260506073126 | 25 | 209 | 4.8 | 14.5 | 0.00 | 0.00 | 0.00 | 83 | 1009.0 |
| 20260506071624 | 25 | 106 | 4.8 | 11.3 | 0.00 | 0.00 | 0.00 | 83 | 1009.0 |
| 20260506070126 | 25 | 190 | 3.2 | 11.3 | 0.00 | 0.00 | 0.00 | 83 | 1009.3 |
| 20260506061624 | 25 | 197 | 3.2 | 14.5 | 0.00 | 0.00 | 0.00 | 83 | 1009.4 |